Regional Weather Roundup
Issued by NWS Pendleton, OR

Home | Current Version | Previous Version | Text Only | Print | Product List | Glossary On
Versions: 1 2 3 4 5 6 7 8 9 10 11 12 13 14 15 16 17 18 19 20 21 22 23 24 25 26 27 28 29 30 31 32 33 34 35 36 37 38 39 40 41 42 43 44 45 46 47 48 49 50
000
ASUS46 KPDT 230325
RWRPDT
PENDLETON REGIONAL WEATHER ROUNDUP
NATIONAL WEATHER SERVICE PENDLETON OREGON
800 PM PDT WED OCT 22 2014

NOTE: FAIR INDICATES FEW OR NO CLOUDS BELOW 12,000 FEET WITH NO
SIGNIFICANT WEATHER AND/OR OBSTRUCTIONS TO VISIBILITY.

# INDICATES UNOFFICIAL STATION AND DATA

WAZ520-230410-
EAST SLOPES OF WASHINGTON CASCADES

CITY            SKY/WX      TMP DP  RH  WIND    PRES   REMARKS
#BUMPING DAM    N/A         46  N/A N/A S2      N/A
#CLE ELUM HS    N/A         49  48  96  CALM    29.63F
#CLE ELUM 2NW   N/A         48  48  100 E1      N/A
#CLE ELUM LAKE  N/A         N/A N/A N/A S3      29.63F
#CLIFFDEL 2NW   N/A         47  47  100 CALM    N/A
#GLENWOOD       N/A         51  50  96  CALM    29.71F
#MANASTASH CYN  N/A         48  45  89  CALM    29.65F
#NELSON         N/A         47  46  96  CALM    29.67F
#NELSON 3SW     N/A         45  44  96  CALM    29.86F
#NILE           N/A         48  47  96  CALM    28.92F
#RONALD 2NW     N/A         47  46  96  NW1     29.55F
#SNOWDEN        N/A         52  47  83  CALM    N/A
#TEANAWAY 4NE   N/A         49  49  100 CALM    N/A
#TROUT LAKE HS  N/A         53  52  96  SW3     N/A
#TROUT LAKE 1NE N/A         51  50  96  CALM    29.72S
$$

WAZ521-230410-
SIMCOE HIGHLANDS

CITY            SKY/WX      TMP DP  RH  WIND    PRES   REMARKS
#BICKLETON HS   N/A         52  46  80  W15     29.82S
#CENTERVILLE 4W N/A         55  51  86  N6      29.47F
#CENTERVILLE 1SWN/A         55  51  86  W3      29.67R
#GOLDENDALE     N/A         54  53  96  CALM    N/A
#GOLDENDALE 1NE N/A         54  54  100 CALM    N/A
#GOLDENDALE 1S  N/A         53  51  93  CALM    29.71R
#GOLDENDALE 5WNWN/A         54  51  90  NW3     29.70R
#GOODNOE HILLS  N/A         59  52  78  NW12    29.65R
#LYLE 6NE       N/A         53  52  96  CALM    29.68S
$$

WAZ026-230410-
KITTITAS VALLEY

CITY            SKY/WX      TMP DP  RH  WIND    PRES   REMARKS
ELLENSBURG AP   PTCLDY      53  49  86  NE8     29.66F
#ELLENSBURG CWU N/A         51  50  96  N3      29.60F
#ELLENSBURG 3NE N/A         51  49  93  NE1     29.68F
#ELLENSBURG     N/A         55  55  100 E2      N/A
#KITTITAS 3S    N/A         48  47  96  CALM    29.64F
#THORP 6N       N/A         50  49  96  E7      29.66F
$$

WAZ027-230410-
YAKIMA VALLEY

CITY            SKY/WX      TMP DP  RH  WIND    PRES   REMARKS
SUNNYSIDE AP    CLOUDY      55  50  83  CALM    29.69R
YAKIMA AIRPORT  LGT RAIN    60  50  69  S12     29.67S
YAKIMA-VAGABOND CLOUDY      59  50  72  S18G28  29.66F
#COWICHE 1N     N/A         52  49  89  CALM    29.82F
#DONALD 2NE     N/A         59  49  69  N1      30.01S
#GRANDVIEW      N/A         60  49  67  CALM    29.70R
#MABTON         N/A         61  52  72  CALM    29.67S
#MOXEE 2E       N/A         60  40  47  S12     29.63F
#NACHES 2SW     N/A         52  50  93  CALM    29.74S
#OUTLOOK DOT    N/A         N/A N/A N/A E7      N/A
#SELAH 8E       N/A         56  49  77  S15G26  N/A
#TERRACE HTS    N/A         58  51  77  S3      29.64S
#TOPPENISH      N/A         59  51  75  CALM    29.59S
#WAPATO 4NE     N/A         59  49  69  N1      30.01S
#WEST VALLEY    N/A         58  51  77  S7      29.64
#W YAKIMA       N/A         58  51  77  S3      29.65F
#WHITE SWAN 5E  N/A         60  52  75  SW5     29.67S
#WILEY CITY 3W  N/A         55  41  59  S2      29.96S
$$

WAZ028-230410-
LOWER COLUMBIA BASIN...WASHINGTON

CITY            SKY/WX      TMP DP  RH  WIND    PRES   REMARKS
PASCO           CLOUDY      61  51  70  SE17    29.68F
PROSSER AWOS    N/A         64  48  56  W12     29.71S
RICHLAND AWOS   MOCLDY      61  54  78  SE6     29.68F
#BASIN CITY 5SW N/A         59  52  78  S6      29.68F
#BENTON CITY    N/A         67  47  49  SE6     29.58S
#CONNELL 5N     N/A         56  50  80  SE8     29.70F
#CONNELL 5NW    N/A         56  50  80  SE9     29.65F
#ELTOPIA        N/A         57  51  80  E5      29.65F
#ELTOPIA 6NW    N/A         56  51  83  S7      28.66F
#KENNEWICK 3S   N/A         63  51  65  E3      29.67F
#PASCO-BROADMOORN/A         61  52  72  E3      29.56F
#PATERSON       N/A         62  52  70  E1      29.65F
#PROSSER        N/A         62  48  60  S7      29.67S
#SAGEMOOR 2W    N/A         59  50  72  E8      29.54F
#TOUCHET 2S     N/A         59  48  67  S12     29.71F
#WEST PASCO     N/A         62  52  70  CALM    29.65F
$$

WAZ029-230410-
FOOTHILLS OF THE BLUES...WASHINGTON

CITY            SKY/WX      TMP DP  RH  WIND    PRES   REMARKS
WALLA WALLA AP  LGT RAIN    65  41  41  SE20G31 29.75S
#LOWDEN 2SE     N/A         62  47  58  SE6     29.70F
#PLEASANT VIEW 1N/A         55  46  72  SE10    29.76F
#PRESCOTT       N/A         63  47  56  S5      29.72F
#SUDBURY        N/A         62  N/A N/A S6      N/A
#WHITMAN COLLEGEN/A         64  43  46  E8      29.76F
#WAITSBURG 8N   N/A         60  32  35  S10     29.71R
#WALLA WALLA 5E N/A         65  39  38  CALM    N/A
#WALLA WALLA U  N/A         64  45  50  CALM    29.72F
#WHITMAN MISSIONN/A         63  45  52  S2      29.74F
$$

WAZ030-230410-
BLUE MOUNTAINS...WASHINGTON

CITY            SKY/WX      TMP DP  RH  WIND    PRES   REMARKS
$$

ORZ009-041-WAZ024-230410-
COLUMBIA RIVER GORGE

CITY            SKY/WX      TMP DP  RH  WIND    PRES   REMARKS
HOOD RIVER AP   RAIN        54  54  100 CALM    29.74R
THE DALLES AP   CLOUDY      56  53  90  W6      29.70S
#ARLINGTON AIRPON/A         56  52  86  W7      29.98S
#ARLINGTON HS   N/A         57  53  86  W2      29.60S
#CELILO DOT     N/A         58  53  83  CALM    N/A
#LYLE           N/A         56  54  93  NE2     29.72S
#MARYHILL 2W    N/A         57  56  96  CALM    N/A
#MOSIER 1S      N/A         54  53  96  CALM    N/A
#MURDOCK        N/A         58  56  93  NW9     29.73R
#RUFUS DOT      N/A         58  55  90  SW18G35 N/A

$$

ORZ510-230410-
NORTH CENTRAL OREGON

CITY            SKY/WX      TMP DP  RH  WIND    PRES   REMARKS
#CHENOWITH 1W   N/A         53  51  93  NW17    N/A
#COW CYN RST AREN/A         58  42  55  S15G30  N/A
#DUFUR 9E       N/A         59  47  64  SW13    29.72S
#GRASS VALLEY   N/A         59  45  60  S5      N/A
#KENT DOT       N/A         57  37  47  SW12    N/A
#MAUPIN SCHOOL  N/A         67  48  50  SW2     28.59S
#MORO SCHOOL    N/A         61  52  72  SW3     29.74R
#SHANIKO 5WSW   N/A         55  35  47  S22     N/A
#SHANIKO 4NW    N/A         55  42  61  SW6     29.75S
#TYGH VALLEY 2NEN/A         63  48  58  CALM    29.69S
#WAPANITIA AIRPON/A         61  47  60  S5      29.70F
#WASCO DOT      N/A         56  51  83  CALM    N/A
#WASCO 5NE      N/A         56  51  83  CALM    29.70S
$$

ORZ511-230410-
CENTRAL OREGON

CITY            SKY/WX      TMP DP  RH  WIND    PRES   REMARKS
BEND AIRPORT    CLOUDY      55  41  59  S13     29.83F
MADRAS AIRPORT  CLOUDY      59  45  60  S18G24  29.78S
PRINEVILLE AP   CLOUDY      59  41  51  S13     29.82F
REDMOND AIRPORT CLOUDY      57  41  55  S12     29.81S
#BEND 6E        N/A         56  40  55  CALM    29.70F
#BEND 1SW       N/A         49  45  86  W3      N/A
#BEND-KIM LN    N/A         52  45  77  S3      29.78F
#CROOKED RVR RANN/A         58  46  64  SW9     29.71F
#CULVER         N/A         58  45  62  SE15G25 29.72F
#LAKE BILLY CHINN/A         58  29  33  S5      29.82F
#POWELL BUTTE 3EN/A         60  39  46  S7      N/A
#POWELL BUTTE   N/A         57  41  55  S3      29.47S
#PRINEVILLE 3N  N/A         58  44  60  CALM    29.72F
#WARM SPRINGS   N/A         63  47  56  E1      29.71F


ORZ509-230410-
EAST SLOPES OF OREGON CASCADES

CITY            SKY/WX      TMP DP  RH  WIND    PRES   REMARKS
#CAMP SHERMAN   N/A         51  48  89  CALM    29.70F
#LA PINE DOT    N/A         48  43  83  S1      N/A
#LA PINE 4NW    N/A         47  43  86  CALM    29.88S
#LAVA BUTTE DOT N/A         47  42  83  S5      N/A
#SISTERS AIRPOR N/A         56  49  77  N1      29.91S
#SISTERS ODOT   N/A         54  N/A N/A N1      N/A
#SISTERS 3N     N/A         54  43  66  CALM    29.80F
#SUNRIVER       N/A         48  46  93  SW2     29.70S
#SUNRIVER AP    N/A         47  44  89  SW7     29.78F
#SUTTLE LK DOT  N/A         44  44  100 SW20G38 N/A    WCI 36
#TUMALO 3W      N/A         51  45  80  SE12    29.62F
#WANOGA BUTTE D N/A         41  41  100 W15G26  N/A    WCI 33

$$

ORZ044-230410-
LOWER COLUMBIA BASIN...OREGON

CITY            SKY/WX      TMP DP  RH  WIND    PRES   REMARKS
HERMISTON       CLOUDY      62  50  65  SW7     29.68F
#BOARDMAN SCHOOLN/A         65  51  60  CALM    29.67F
#BOARDMAN 3W    N/A         57  55  93  W1      29.38S
#BOARDMAN 8SW   N/A         57  54  90  W2      29.68S
#ECHO 8SW       N/A         69  45  42  S15     29.65F
#IONE SCHOOL    N/A         67  44  43  SW5     29.69F
#IRRIGON 4NW    N/A         63  55  75  E7      N/A
#UMATILLA SCHOOLN/A         58  58  100 E3      29.72F
#UMATILLA       N/A         62  52  70  SE1     29.65F
$$

ORZ507-230410-
NORTHERN FOOTHILLS OF THE BLUES

CITY            SKY/WX      TMP DP  RH  WIND    PRES   REMARKS
PENDLETON AIRPT LGT RAIN    57  47  69  E9      29.73F
#ADAMS 3WNW     N/A         51  49  93  E2      29.74F
#ATHENA         N/A         57  43  59  S2      29.75F
#CAYUSE         N/A         60  45  58  E26G38  29.69F
#HELIX SCHOOL   N/A         53  46  77  S15     29.74F
#HELIX 3N       N/A         54  46  74  SE24G32 29.74F
#HELIX 6SW      N/A         54  47  77  E10     29.75
#HOLDMAN 5SE    N/A         56  50  80  E5      29.75F
#HOLDMAN 6E     N/A         54  46  74  SE5     29.54F
#M-F FERNDALE   N/A         62  43  50  CALM    29.75S
#M-F GROVE ELEM N/A         61  41  48  SE3     29.74F
#M-FREEWATER 5SEN/A         59  44  57  E15     29.78S
#PENDLETON DNTN N/A         58  41  53  CALM    28.55S
#PDT AQUATIC CTRN/A         64  43  46  E3      29.73S
#PDT SUNRIDGE   N/A         63  48  58  SE7     29.74F
#PENDLETON 7NW  N/A         62  47  58  S8      26.83F
#PILOT ROCK     N/A         66  38  36  SE15G26 29.75F
#TUTUILLA       N/A         61  46  58  S1      29.74F
#UMAPINE 2E     N/A         60  48  64  SE9     29.71F
#WESTON SCHOOL  N/A         59  39  47  S9      29.73F

$$

ORZ508-230410-
SOUTHERN FOOTHILLS OF THE BLUES

CITY            SKY/WX      TMP DP  RH  WIND    PRES   REMARKS
LEXINGTON       MOCLDY      66  43  43  S21G28  29.72F
#AJAX           N/A         62  40  44  S16G26  29.68S
#CONDON SCHOOL  N/A         61  43  51  CALM    29.72S
#CONDON 5W      N/A         58  40  51  S16G26  29.73S
#FOSSIL SCHOOL  N/A         63  42  46  SW10    29.75S
#HEPPNER EOC    N/A         63  42  46  E3      29.64F
#HEPPNER 4NE    N/A         60  41  49  SE2     29.69F
#LEXINGTON 2SE  N/A         67  43  42  S16G24  29.67F
#MIKKALO        N/A         64  43  46  W6      29.71S
#OLEX 4N        N/A         57  51  80  CALM    29.68F
#RUGGS 5NE      N/A         60  39  46  E8      29.91F
#RUGGS 2SW      N/A         58  42  55  S12     29.72F

$$

ORZ502-503-230410-
BLUE MOUNTAINS

CITY            SKY/WX      TMP DP  RH  WIND    PRES   REMARKS
MEACHAM         LGT RAIN    50  38  63  CALM    29.85F
#BATTLE MTN DOT N/A         51  42  71  S15     N/A
#HARDMAN 10S    N/A         47  43  86  S3      29.89F
#HEPPNER 15SE   N/A         53  40  61  S3      29.70F
#LADD CYN SMT   N/A         52  31  44  SE15    N/A
#LADD CREEK ODOTN/A         53  37  54  SW12    N/A
#N POWDER DOT   N/A         53  36  52  SE23G30 N/A
#PIKES PEAK     N/A         54  38  55  S39G60  27.99S
#TROY SCHOOL    N/A         57  41  55  CALM    29.67R
#UKIAH          N/A         51  47  86  SE5     29.85F
#WESTON 4E      N/A         51  41  68  E15     29.71F
$$

ORZ505-230410-
JOHN DAY BASIN

CITY            SKY/WX      TMP DP  RH  WIND    PRES   REMARKS
JOHN DAY        RAIN        56  40  55  S16G25  29.90R
#JOHN DAY KJDY  N/A         59  40  49  W6      30.03R
#DAYVILLE SCHOOLN/A         60  41  49  E2      29.82S
#MT. VERNON 5SE N/A         55  37  51  E7      29.86R
#WINLOCK        N/A         57  40  53  N14     29.90S
$$

ORZ506-230410-
OCHOCO AND JOHN DAY HIGHLANDS

CITY            SKY/WX      TMP DP  RH  WIND    PRES   REMARKS
#HORSE RIDGE DO N/A         53  39  59  S17     N/A
#KEYES SMT DOT  N/A         53  38  57  SE14    N/A
#PAULINA SCHOOL N/A         56  36  47  S9      29.88S
#PINE MTN OBS   N/A         43  38  82  SE24G37 N/A    WCI 34
#PRAIRIE CITY   N/A         55  38  53  E6      29.88S
#SENECA         N/A         54  N/A N/A S7      N/A
#SENECA 9NW     N/A         49  39  68  CALM    29.94R
$$

ORZ049-230410-
GRANDE RONDE VALLEY

CITY            SKY/WX      TMP DP  RH  WIND    PRES   REMARKS
LA GRANDE       CLOUDY      57  32  38  S9      29.87F
#COVE           N/A         60  36  41  SE13    29.78S
#COVE SCHOOL    N/A         60  35  39  E9      29.85S
#COVE 6NW       N/A         59  35  40  SE12    29.89F
#ELGIN 3N       N/A         56  35  45  S14     29.59F
#ELGIN 1E       N/A         59  34  39  SW7     N/A
#IMBLER SCHOOL  N/A         63  35  35  SW3     29.84S
#ISLAND CITY 4N N/A         55  54  96  CALM    29.67S
#LADD CYN DOT   N/A         56  36  47  S23G30  N/A
#UNION 1S       N/A         58  36  44  E10G25  29.77S
$$

ORZ050-230410-
WALLOWA COUNTY

CITY            SKY/WX      TMP DP  RH  WIND    PRES   REMARKS
#ENTERPRISE HS  N/A         59  37  44  SE6     29.87F
#IMNAHA SCHOOL  N/A         62  31  31  S14G28  29.80S
#IMNAHA 10S     N/A         58  34  40  SW8     29.90F
#JOSEPH 3N      N/A         55  38  53  SE16G31 29.89S
#JOSEPH 3W      N/A         51  38  61  S1      29.74R
#LOSTINE        N/A         55  35  47  CALM    29.66S
#MT HOWARD 8000 N/A         37  31  79  S18G39  29.91R WCI 27
#PROMISE 1S     N/A         54  35  48  E5      29.94F
#SHEEP RDG 7000 N/A         42  31  65  CALM    29.86F
#WALLOWA SCHOOL N/A         56  37  49  CALM    30.79F



$$



USA.gov is the U.S. government's official web portal to all federal, state and local government web resources and services.